Danvers, MA

12:40 PM EST on February 08, 2016 (GMT -0500)
Beverly Municipal

Weather History for KBVY - December, 2012

Change the Weather History Date:

Sunday, December 23, 2012

  Actual Average Record
Temperature  
Mean Temperature 32 °F -  
Max Temperature 39 °F 36 °F 59 °F (2004)
Min Temperature 26 °F 21 °F 6 °F (2008)
Degree Days  
Heating Degree Days 32    
Moisture  
Dew Point 17 °F    
Average Humidity 52    
Maximum Humidity 64    
Minimum Humidity 39    
Precipitation  
Precipitation 0.00 in - - ()
Sea Level Pressure  
Sea Level Pressure 29.77 in    
Wind  
Wind Speed 12 mph (WSW)    
Max Wind Speed 17 mph    
Max Gust Speed 26 mph    
Visibility 10 miles    
Events      
Averages and records for this station are not official NWS values.
T = Trace of Precipitation, MM = Missing Value Source: NWS Daily Summary

Daily Weather History Graph

Daily Weather History Graph

Search for Another Location

Airport or City:

Trip Planner

Search our weather history database for the weather conditions in past years. The results will help you decide how hot, cold, wet, or windy it might be!

Date:

Astronomy

Dec. 23, 2012 Rise Set
Actual Time 7:11 AM EST 4:14 PM EST
Civil Twilight 6:39 AM EST 4:46 PM EST
Nautical Twilight 6:03 AM EST 5:22 PM EST
Astronomical Twilight 5:29 AM EST 5:56 PM EST
Moon 1:06 PM EST (12/23) 2:48 AM EST (12/23)
Length of Visible Light 10h 07m
Length of Day
9h 03m
Waxing Gibbous, 81% of the Moon is Illuminated
Dec 23
Waxing Gibbous
Dec 28
Full
Jan 4
Last Quarter
Jan 11
New
Jan 18
First Quarter

Hourly Weather History & Observations

Time (EST) Temp. Windchill Dew Point Humidity Pressure Visibility Wind Dir Wind Speed Gust Speed Precip Events Conditions
12:53 AM 30.0 °F 18.3 °F 12.9 °F 49% 29.62 in 10.0 mi WNW 17.3 mph 26.5 mph N/A   Clear
1:53 AM 28.9 °F 17.7 °F 12.9 °F 51% 29.66 in 10.0 mi WNW 15.0 mph 24.2 mph N/A   Clear
2:53 AM 28.9 °F 18.2 °F 12.0 °F 49% 29.69 in 10.0 mi WNW 13.8 mph 20.7 mph N/A   Clear
3:53 AM 28.9 °F 19.2 °F 10.9 °F 47% 29.71 in 10.0 mi West 11.5 mph 17.3 mph N/A   Clear
4:53 AM 27.0 °F 20.5 °F 10.9 °F 51% 29.73 in 10.0 mi West 5.8 mph - N/A   Clear
5:53 AM 28.0 °F 20.0 °F 12.0 °F 51% 29.75 in 10.0 mi West 8.1 mph - N/A   Clear
6:53 AM 26.1 °F 20.5 °F 12.0 °F 55% 29.78 in 10.0 mi West 4.6 mph - N/A   Clear
7:53 AM 27.0 °F 20.5 °F 14.0 °F 58% 29.80 in 10.0 mi WSW 5.8 mph - N/A   Clear
8:53 AM 32.0 °F 23.0 °F 14.0 °F 48% 29.80 in 10.0 mi WSW 11.5 mph - N/A   Clear
9:53 AM 33.1 °F 24.4 °F 12.9 °F 43% 29.81 in 10.0 mi West 11.5 mph 20.7 mph N/A   Clear
10:53 AM 35.1 °F 25.5 °F 14.0 °F 42% 29.80 in 10.0 mi WSW 15.0 mph 21.9 mph N/A   Clear
11:53 AM 37.0 °F 28.5 °F 14.0 °F 39% 29.79 in 10.0 mi West 13.8 mph 24.2 mph N/A   Clear
12:53 PM 39.2 °F 30.2 °F 15.8 °F 39% 29.77 in 10.0 mi WSW 17.3 mph 21.9 mph N/A   Clear
1:53 PM 39.0 °F 29.9 °F 19.0 °F 45% 29.76 in 10.0 mi WSW 17.3 mph 25.3 mph N/A   Partly Cloudy
2:53 PM 37.9 °F 30.0 °F 21.0 °F 51% 29.77 in 10.0 mi WSW 12.7 mph 24.2 mph N/A   Partly Cloudy
3:53 PM 36.0 °F 29.0 °F 21.0 °F 55% 29.78 in 10.0 mi WSW 9.2 mph - N/A   Clear
4:53 PM 35.1 °F 29.3 °F 19.9 °F 54% 29.80 in 10.0 mi WSW 6.9 mph - N/A   Partly Cloudy
5:53 PM 33.1 °F 30.0 °F 19.9 °F 59% 29.80 in 10.0 mi WSW 3.5 mph - N/A   Clear
6:53 PM 32.0 °F 26.4 °F 21.0 °F 64% 29.81 in 10.0 mi WSW 5.8 mph - N/A   Overcast
7:53 PM 33.1 °F 30.0 °F 21.9 °F 64% 29.82 in 10.0 mi SSW 3.5 mph - N/A   Overcast
8:53 PM 34.0 °F 27.2 °F 21.0 °F 59% 29.81 in 10.0 mi SW 8.1 mph - N/A   Partly Cloudy
9:53 PM 33.1 °F 26.1 °F 21.0 °F 61% 29.82 in 10.0 mi SW 8.1 mph - N/A   Clear
10:53 PM 33.1 °F 26.1 °F 21.0 °F 61% 29.84 in 10.0 mi WSW 8.1 mph - N/A   Clear
11:53 PM 32.0 °F 25.6 °F 21.0 °F 64% 29.83 in 10.0 mi SW 6.9 mph - N/A   Clear